Location: Bismarck
(46.7731°N, 100.8200°W)
Time: 12:01:45
(UTC-05:00)

Landsat 7 - Visible Passes

Search period start: 01 July 2016 00:00
Search period end: 11 July 2016 00:00
Orbit: 701 x 703 km, 98.2° (Epoch: 01 July)

Date Brightness Start Highest point End Pass type
(mag) Time Alt. Az. Time Alt. Az. Time Alt. Az.
01 Jul 5.8 00:32:29 11° SW 00:35:45 20° W 00:39:13 10° NW visible
01 Jul 4.1 23:36:52 17° S 23:40:25 63° WSW 23:45:10 10° NNW visible
02 Jul 4.5 22:41:16 11° SE 22:45:32 41° ENE 22:50:00 10° N visible
03 Jul 5.5 00:20:09 13° SW 00:23:25 25° W 00:27:22 10° NW visible
03 Jul 3.9 23:24:33 17° S 23:28:11 81° WSW 23:32:59 10° NNW visible
04 Jul 4.8 22:29:12 10° SE 22:33:24 32° ENE 22:37:38 10° N visible
05 Jul 5.1 00:07:49 15° SSW 00:11:06 32° W 00:15:24 10° NNW visible
05 Jul 3.8 23:12:13 16° SSE 23:15:58 78° ENE 23:20:45 10° N visible
06 Jul 6.2 00:52:01 10° WSW 00:54:18 13° W 00:56:35 10° WNW visible
06 Jul 5.2 22:17:23 10° ESE 22:21:17 26° ENE 22:25:11 10° N visible
06 Jul 4.7 23:55:30 17° SSW 23:58:49 42° W 00:03:21 10° NNW visible
07 Jul 4.0 22:59:54 15° SSE 23:03:47 60° ENE 23:08:29 10° N visible
08 Jul 6.0 00:38:48 10° SW 00:41:56 17° W 00:45:05 10° NW visible
08 Jul 4.3 23:43:12 18° S 23:46:32 55° W 23:51:14 10° NNW visible
09 Jul 4.3 22:47:36 13° SE 22:51:37 47° ENE 22:56:10 10° N visible
10 Jul 5.7 00:26:29 13° SW 00:29:35 22° W 00:33:18 10° NW visible
10 Jul 4.0 23:30:53 19° S 23:34:18 72° WSW 23:39:05 10° NNW visible
